Location: Winthrop
(48.4780°N, 120.1850°W)
Time: 05:15:31
(UTC-08:00)

Vanguard 1 Rocket - Pass Details

Date: 02 December 2023
Orbit: 654 x 4218 km, 34.3° (Epoch: 24 February)

Event Time Altitude Azimuth Distance (km) Brightness Sun altitude
Rises 09:40:15 0° 265° (W) 6,155 11.4 13.8°
Reaches altitude 10° 09:45:46 10° 255° (WSW) 4,475 10.8 14.2°
Maximum altitude 09:54:12 26° 205° (SSW) 2,395 10.2 14.9°
Drops below altitude 10° 09:59:34 10° 151° (SSE) 2,748 12.9 15.3°
Sets 10:02:04 0° 137° (SE) 3,428 11.9 15.5°
